DECAYED

STARLINK-1692, 46542 (Decayed)

Orbit data source: Space-Track

STARLINK-1692, 46542 was a payload satellite owned by SpaceX/Seattle (US) in LEO that was launched on Tue, 06 Oct 2020 UTC via an FALCON 9 launch vehicle from the Air Force Eastern Test Range (AFETR). Payload-class satellites include a variety of spacecraft equipped with specific instruments for various scientific and technological missions. These include communications satellites like Starlink; space stations such as the ISS; scientific satellites like the Hubble; Earth observation satellites from companies like Planet Labs, Umbra, and HawkEye 360; GPS; miniature CubeSats for education and research; and military/defense satellites.

Not visible in the next 10 days
Identifier
46542, 2020-070L
Orbit
Decayed
Country
Flag of USUS
Related business
Manufacturer
SpaceX/Seattle
Mission
Decayed Commercial Communications
Bus & Motor
STARLINK, Unknown motor
Mass
260 kg wet, ~248 kg dry
Launch date (UTC)
2020-10-06 (6 years ago)
Launch vehicle
FALCON 9
Launch site
Air Force Eastern Test Range (AFETR)
Object type
Payload
Rocket body
Debris
Shape & HBR
Box + 1 Pan, 10.1 m
Radar Cross Section
13.562 m², Large (>1 m²)

Expand to show TLE details & history
Last TLE update: 8 months ago

TLE from 8 months ago
0 STARLINK-1692
1 46542U 20070L   25342.59950862  .11720910  12472-4  54813-3 0  9995
2 46542  53.0194 146.1358 0005490 287.3824  72.6623 16.42959819286887
Epoch: 2025-12-08T14:23Z
TLE epoch observation values (Epoch: 2025-12-08T14:23:17.544Z)
Latitude
-0.00002°
Longitude
-147.28354°
Altitude
157.801 km
Speed
7.813 km/s
True Right ascension
09h 44m 32s
True Declination
0° 00' 00"
Sunlit
Object was in full shadow at epoch
Visualization orbit readout
Latitude
Unknown
Longitude
Unknown
Altitude
Unknown
Speed
Unknown
Apparent Right ascension
Unknown
Apparent Declination
Unknown
Sunlit
N/A
Visualization observer readout
Local Sidereal Time
23:03:40
Azimuth
Unknown
Elevation
Unknown
Doppler factor
Unknown
Orbital elements
Apogee altitude
161.822 km
Perigee altitude
154.645 km
Semi-major axis
6,536.37 km
Eccentricity
0.00055
Inclination
53.0194°
RAAN
146.1358°
Arg. of periapsis
287.3824°
True anomaly
72.72236°
Mean anomaly
72.6623°
Eccentric anomaly
72.69233°
Mean motion
4.10713 °/min
Orbital period
87.65 mins
BSTAR
0.00054813
Loading maneuver chart data...
Computing Atmospheric mass density...

Documentation

Showing up to 5 results
|